FW9205 Weather Reports


time (UTC)temp
C
wind
direction
speed
KPH
gust
KPH
rain 1hr
cm
rain 24hr
cm
rain mn
cm
humidity
%
barometer
mb
20260508141957 8 302 3.2 9.7 0.00 0.00 0.00 96 1002.7
20260508140957 7 296 4.8 9.7 0.00 0.00 0.00 95 1002.8
20260508135948 7 281 4.8 9.7 0.00 0.00 0.00 95 1002.8
20260508134941 9 323 4.8 9.7 0.00 0.00 0.00 95 1002.9
20260508133953 9 345 3.2 8.0 0.00 0.00 0.00 95 1002.8
20260508132953 10 356 4.8 8.0 0.00 0.00 0.00 95 1002.8
20260508131956 10 5 3.2 6.4 0.00 0.00 0.00 95 1002.9
20260508130941 10 315 0.0 4.8 0.00 0.00 0.00 96 1002.8
20260508125951 9 319 1.6 4.8 0.00 0.00 0.00 96 1002.7
20260508124947 7 292 1.6 4.8 0.00 0.00 0.00 96 1002.6
20260508123942 6 238 1.6 14.5 0.00 0.00 0.00 96 1002.7
20260508122949 6 300 9.7 12.9 0.00 0.00 0.00 96 1002.7
20260508121954 6 221 3.2 6.4 0.00 0.00 0.00 96 1002.8
20260508120935 6 244 4.8 8.0 0.00 0.00 0.00 96 1002.9
20260508115950 6 278 3.2 4.8 0.00 0.00 0.00 96 1002.9
20260508115001 6 231 1.6 4.8 0.00 0.00 0.00 96 1002.9
20260508113948 6 231 3.2 4.8 0.00 0.00 0.00 96 1002.7
20260508112959 6 298 1.6 4.8 0.00 0.00 0.00 96 1002.6
20260508112001 6 300 3.2 6.4 0.00 0.00 0.00 96 1002.6
20260508110947 7 338 4.8 6.4 0.00 0.00 0.00 96 1002.5
20260508105959 8 353 4.8 6.4 0.00 0.00 0.00 97 1002.6
20260508104950 7 350 0.0 3.2 0.00 0.00 0.00 97 1002.5
20260508103935 6 318 0.0 1.6 0.00 0.00 0.00 96 1002.5
20260508102955 6 318 0.0 4.8 0.00 0.00 0.00 97 1002.8
20260508101949 5 317 1.6 6.4 0.00 0.00 0.00 97 1002.8
20260508100957 5 302 4.8 6.4 0.00 0.00 0.00 97 1002.7
20260508095955 5 282 4.8 6.4 0.00 0.00 0.00 97 1002.9
20260508095427 6 283 4.8 8.0 0.00 0.00 0.00 97 1002.8
20260508094923 5 280 3.2 11.3 0.00 0.00 0.00 97 1002.6
20260508093946 6 270 4.8 9.7 0.00 0.00 0.00 96 1002.7
20260508092950 6 241 3.2 6.4 0.00 0.00 0.00 96 1002.6
20260508091939 6 256 3.2 4.8 0.00 0.00 0.00 97 1002.5
20260508090954 6 355 1.6 4.8 0.00 0.00 0.00 96 1002.3
20260508085954 6 52 0.0 3.2 0.00 0.00 0.00 96 1002.0
20260508084927 -17 0.0 0.0 0.00 0.00 0.00 1002.0
20260508083936 -17 0.0 0.0 0.00 0.00 0.00 1002.3
20260508083428 -17 0.0 0.0 0.00 0.00 0.00 1002.2
20260508082442 -17 0.0 0.0 0.00 0.00 0.00 1002.2
20260508081932 -17 0.0 0.0 0.00 0.00 0.00 1002.2
20260508081429 -17 0.0 0.0 0.00 0.00 0.00 1002.3
20260508080926 -17 0.0 0.0 0.00 0.00 0.00 1002.3
20260508075931 -17 0.0 0.0 0.00 0.00 0.00 1002.2
20260508074952 -17 0.0 0.0 0.00 0.00 0.00 1001.9
20260508073440 -17 0.0 0.0 0.00 0.00 0.00 1002.4
20260508072936 7 346 0.0 4.8 0.00 0.00 0.00 96 1002.5
20260508072420 7 346 0.0 4.8 0.00 0.00 0.00 96 1002.3
20260508071440 7 345 1.6 4.8 0.00 0.00 0.00 96 1002.2
20260508070932 7 342 3.2 4.8 0.00 0.00 0.00 96 1002.2
20260508065940 7 341 1.6 3.2 0.00 0.00 0.00 96 1002.1
20260508064431 7 341 1.6 11.3 0.00 0.00 0.00 96 1002.4
20260508063506 7 327 6.4 9.7 0.00 0.00 0.00 96 1002.1
20260508062907 7 318 3.2 6.4 0.00 0.00 0.00 97 1002.3
20260508061937 7 255 1.6 4.8 0.00 0.00 0.00 96 1002.3
20260508061429 7 217 1.6 4.8 0.00 0.00 0.00 96 1002.6
20260508055932 7 200 3.2 6.4 0.00 0.00 0.00 96 1002.3
20260508055425 7 250 3.2 6.4 0.00 0.00 0.00 96 1002.3
20260508054627 7 242 3.2 8.0 0.00 0.00 0.00 96 1002.5
20260508053908 7 246 4.8 8.0 0.00 0.00 0.00 96 1002.5
20260508052920 7 268 4.8 8.0 0.00 0.00 0.00 96 1002.3
20260508052420 7 267 4.8 8.0 0.00 0.00 0.00 96 1002.2
20260508051906 7 254 4.8 8.0 0.00 0.00 0.00 96 1002.3
20260508050918 7 258 4.8 6.4 0.00 0.00 0.00 96 1002.2
20260508050409 7 261 1.6 4.8 0.00 0.00 0.00 96 1002.3
20260508045419 7 181 0.0 4.8 0.00 0.00 0.00 96 1002.3
20260508044421 7 181 3.2 4.8 0.00 0.00 0.00 96 1002.1
20260508043905 7 281 1.6 8.0 0.00 0.00 0.00 96 1002.5
20260508042929 7 277 4.8 9.7 0.00 0.00 0.00 96 1002.3
20260508042412 7 271 6.4 9.7 0.00 0.00 0.00 96 1002.3
20260508041440 7 274 1.6 4.8 0.00 0.00 0.00 96 1002.3
20260508040912 7 274 1.6 6.4 0.00 0.00 0.00 96 1002.4
20260508035921 8 244 3.2 6.4 0.00 0.00 0.00 96 1002.4
20260508035403 7 256 1.6 8.0 0.00 0.00 0.00 96 1002.3
20260508034414 8 270 3.2 6.4 0.00 0.00 0.00 96 1002.3
20260508033429 8 267 3.2 6.4 0.00 0.00 0.00 96 1002.4
20260508032435 9 217 3.2 6.4 0.00 0.00 0.00 96 1002.4
20260508031440 8 222 3.2 8.0 0.00 0.00 0.00 96 1002.5
20260508030931 8 243 4.8 8.0 0.00 0.00 0.00 96 1002.5
20260508030420 7 225 3.2 6.4 0.00 0.00 0.00 96 1002.7
20260508025437 8 232 3.2 8.0 0.00 0.00 0.00 96 1002.7
20260508024928 7 247 3.2 6.4 0.00 0.00 0.00 96 1002.6
20260508023936 7 249 3.2 9.7 0.00 0.00 0.00 96 1002.5
20260508022939 8 293 8.0 12.9 0.00 0.00 0.00 96 1002.4
20260508022419 8 294 9.7 12.9 0.00 0.00 0.00 96 1002.6
20260508021429 9 298 1.6 4.8 0.00 0.00 0.00 96 1002.5
20260508020408 10 187 3.2 4.8 0.00 0.00 0.00 96 1002.5
20260508015445 10 182 3.2 6.4 0.00 0.00 0.00 96 1002.5
20260508014458 10 188 3.2 4.8 0.00 0.00 0.00 96 1002.5
20260508013443 10 154 3.2 6.4 0.00 0.00 0.00 96 1002.3
20260508012929 10 176 3.2 6.4 0.00 0.00 0.00 96 1002.6
20260508011948 10 188 3.2 6.4 0.00 0.00 0.00 96 1002.8
20260508011414 10 199 4.8 6.4 0.00 0.00 0.00 96 1002.8
20260508010427 10 178 3.2 6.4 0.00 0.00 0.00 96 1002.6
20260508005449 10 155 1.6 4.8 0.00 0.00 0.00 96 1002.3
20260508004503 10 156 1.6 4.8 0.00 0.00 0.00 96 1002.2
20260508003918 10 156 0.0 6.4 0.00 0.00 0.00 96 1002.3
20260508002943 10 167 3.2 4.8 0.00 0.00 0.00 96 1002.3
20260508002437 10 158 1.6 4.8 0.00 0.00 0.00 96 1002.4
20260508001927 10 159 1.6 4.8 0.00 0.00 0.00 96 1002.3
20260508000934 10 168 1.6 4.8 0.00 0.00 0.00 96 1002.4
20260507235926 9 168 1.6 4.8 0.00 0.00 0.00 96 1002.5
20260507235423 10 168 1.6 4.8 0.00 0.00 0.00 95 1002.4
20260507234433 10 168 1.6 4.8 0.00 0.00 0.00 95 1002.3
20260507233931 10 166 0.0 4.8 0.00 0.00 0.00 95 1002.3
20260507232943 9 167 3.2 4.8 0.00 0.00 0.00 95 1002.4
20260507232434 9 167 1.6 4.8 0.00 0.00 0.00 95 1002.1
20260507231442 9 168 1.6 4.8 0.00 0.00 0.00 95 1002.2
20260507230932 9 255 1.6 4.8 0.00 0.00 0.00 95 1002.3
20260507225928 9 256 0.0 3.2 0.00 0.00 0.00 95 1002.1
20260507225428 9 256 0.0 0.0 0.00 0.00 0.00 95 1002.2
20260507224452 9 250 0.0 3.2 0.00 0.00 0.00 95 1002.1
20260507223436 9 250 1.6 4.8 0.00 0.00 0.00 95 1002.2
20260507222444 -17 0.0 0.0 0.00 0.00 0.00 1002.0
20260507221457 -17 0.0 0.0 0.00 0.00 0.00 1002.1
20260507220923 -17 0.0 0.0 0.00 0.00 0.00 1002.1
20260507220001 -17 0.0 0.0 0.00 0.00 0.00 1002.3
20260507214944 -17 0.0 0.0 0.00 0.00 0.00 1002.2
20260507213958 -17 0.0 0.0 0.00 0.00 0.00 1002.3
20260507213432 8 207 8.0 12.9 0.00 0.00 0.00 93 1002.1
20260507212434 8 212 8.0 12.9 0.00 0.00 0.00 93 1001.9
20260507211459 8 212 6.4 12.9 0.00 0.00 0.00 93 1001.8
20260507210443 8 197 8.0 16.1 0.00 0.00 0.00 92 1001.8
20260507205452 9 277 11.3 20.9 0.00 0.00 0.00 92 1001.9
20260507203948 10 304 19.3 35.4 0.00 0.00 0.00 90 1001.3
20260507202956 14 154 17.7 29.0 0.00 0.00 0.00 90 1000.8
20260507202001 15 154 17.7 24.1 0.00 0.00 0.00 91 1000.7
20260507201005 14 142 16.1 30.6 0.00 0.00 0.00 92 1000.5
20260507195943 13 153 17.7 25.7 0.00 0.00 0.00 94 1000.6
20260507194943 11 236 17.7 25.7 0.00 0.00 0.00 93 1001.1
20260507193940 13 137 17.7 27.4 0.00 0.00 0.00 94 1000.7
20260507192956 12 191 16.1 24.1 0.00 0.00 0.00 94 1000.4
20260507191955 12 140 19.3 27.4 0.00 0.00 0.00 94 1000.4
20260507190503 12 121 30.6 45.1 0.00 0.00 0.00 94 998.7
20260507185700 16 143 25.7 43.5 0.00 0.00 0.00 81 1003.2